• Processing (Info)

  • MPEC 2006-E09 : 2006 EA

    The following Minor Planet Electronic Circular may be linked-to from your own Web pages, but must not otherwise be redistributed electronically.

    A form allowing access to any MPEC is at the bottom of this page.


    Read MPEC 2006-E08 Read MPEC 2006-E10


    M.P.E.C. 2006-E09                                Issued 2006 Mar. 3, 21:57 UT
    
         The Minor Planet Electronic Circulars contain information on unusual
             minor planets and routine data on comets.  They are published
       on behalf of Commission 20 of the International Astronomical Union by the
              Minor Planet Center, Smithsonian Astrophysical Observatory,
                              Cambridge, MA 02138, U.S.A.
    
                      Supported in part by the Brinson Foundation
                      Supported in part by the TABASGO Foundation
                 Prepared using the Tamkin Foundation Computer Network
    
                                  MPC@CFA.HARVARD.EDU
              URL http://cfa-www.harvard.edu/iau/mpc.html  ISSN 1523-6714
    
                                        2006 EA
    
    Observations:
         K06E00A* C2006 03 03.19604 07 45 59.72 +67 11 05.1          18.9 V EE009703
         K06E00A  C2006 03 03.20409 07 46 01.74 +67 10 32.2          18.8 V EE009703
         K06E00A  C2006 03 03.21253 07 46 03.61 +67 09 58.7          19.0 V EE009703
         K06E00A  C2006 03 03.22072 07 46 05.70 +67 09 27.1          19.0 V EE009703
         K06E00A  C2006 03 03.28853 07 46 22.36 +67 04 54.4          19.0 V EE009703
         K06E00A  C2006 03 03.28917 07 46 22.41 +67 04 51.3          19.1 V EE009703
         K06E00A  C2006 03 03.28981 07 46 22.67 +67 04 48.9          18.9 V EE009703
         K06E00A  C2006 03 03.29045 07 46 22.73 +67 04 47.1          19.0 V EE009703
         K06E00A  C2006 03 03.87602 07 48 58.18 +66 25 35.9                 EE009J95
         K06E00A  C2006 03 03.88033 07 48 59.24 +66 25 18.2                 EE009J95
         K06E00A  C2006 03 03.88467 07 49 00.31 +66 25 00.7          19.1 R EE009J95
    
    Observer details:
    703 Catalina Sky Survey.  Observers E. J. Christensen, A. R. Gibbs.  Measurers
        E. C. Beshore, E. J. Christensen, G. J. Garradd, A. R. Gibbs, A. D. Grauer,
        R. E. Hill, R. A. Kowalski, S. M. Larson, R. H. McNaught.  0.68-m Schmidt
        + CCD.
    J95 Great Shefford.  Observer P. Birtwhistle.  0.40-m f/6.0 Schmidt-Cassegrain
        + CCD.
    
    Orbital elements:
    2006 EA                                                  Earth MOID = 0.2249 AU
    Epoch 2006 Mar. 6.0 TT = JDT 2453800.5                  MPC
    M   0.73506              (2000.0)            P               Q
    n   0.24088261     Peri.  146.56430     -0.85704867     -0.51491528
    a   2.5581878      Node     2.65089     +0.34295524     -0.59642652
    e   0.5421092      Incl.   23.12089     +0.38451173     -0.61574156
    P   4.09           H   19.0           G   0.15           U   9
    Residuals in seconds of arc
    060303 703  0.1+  0.5+    060303 703  0.4+  0.1+    060303 J95  0.1-  0.2+
    060303 703  0.5+  0.5-    060303 703  0.3-  0.4-    060303 J95  0.0   0.1-
    060303 703  0.6-  0.4-    060303 703  0.3+  0.2-    060303 J95  0.2+  0.0
    060303 703  0.0   0.6+    060303 703  0.2-  0.6+
    
    Ephemeris:
    2006 EA                  a,e,i = 2.56, 0.54, 23                  q = 1.1714
    Date    TT    R. A. (2000) Decl.     Delta      r     Elong.  Phase     V
    2006 02 24    07 08.73   +74 05.0    0.382    1.174   109.6    52.6    19.2
    2006 03 06    07 57.75   +63 57.1    0.347    1.172   112.9    51.2    18.9
    2006 03 16    08 31.57   +50 12.0    0.328    1.181   117.2    48.5    18.8
    2006 03 26    08 57.61   +34 21.7    0.334    1.202   120.5    45.7    18.8
    2006 04 05    09 19.82   +19 11.2    0.368    1.233   121.4    43.9    19.0
    2006 04 15    09 40.23   +06 42.9    0.428    1.272   120.0    43.0    19.3
    2006 04 25    09 59.83   -02 43.0    0.508    1.320   117.5    42.5    19.8
    2006 05 05    10 19.28   -09 41.9    0.603    1.374   114.6    41.9    20.2
    2006 05 15    10 38.90   -14 56.4    0.709    1.433   111.6    41.0    20.6
    2006 05 25    10 58.77   -18 58.9    0.825    1.495   108.5    40.0    21.0
    2006 06 04    11 19.02   -22 12.4    0.948    1.560   105.2    38.8    21.4
    2006 06 14    11 39.63   -24 52.2    1.079    1.628   101.9    37.6    21.7
    
    Timothy B. Spahr             (C) Copyright 2006 MPC           M.P.E.C. 2006-E09
    

    Read MPEC 2006-E08 Read MPEC 2006-E10


    MPEC number:

    Enter an MPEC number in one of the following forms:

    • 1997-B01 (the full form)
    • J97B01 (the packed version of the full form)
    • B01 (the abbreviated form)